Change the Weather History Date:

Friday, October 18, 2013

  Actual Average Record
Temperature  
Mean Temperature 44 °F 52 °F  
Max Temperature 51 °F 63 °F 87 °F (1950)
Min Temperature 36 °F 42 °F 22 °F (1948)
Degree Days  
Heating Degree Days 21 13  
Month to date heating degree days 140 184  
Since 1 July heating degree days 210 291  
Cooling Degree Days 0 0  
Month to date cooling degree days 32 10  
Year to date cooling degree days 1028 937  
Moisture  
Dew Point 35 °F    
Average Humidity 70    
Maximum Humidity 93    
Minimum Humidity 46    
Precipitation  
Precipitation 0.00 in 0.12 in 1.75 in (1984)
Month to date precipitation 0.65 2.00  
Year to date precipitation 32.23 33.52  
Sea Level Pressure  
Sea Level Pressure 30.06 in    
Wind  
Wind Speed 7 mph (West)    
Max Wind Speed 16 mph    
Max Gust Speed 20 mph    
Visibility 10 miles    
Events      
T = Trace of Precipitation, MM = Missing Value Source: NWS Daily Summary

Daily Weather History Graph

Daily Weather History Graph

Search for Another Location

Airport or City:

Trip Planner

Search our weather history database for the weather conditions in past years. The results will help you decide how hot, cold, wet, or windy it might be!

Date:

Astronomy

Oct. 18, 2013 Rise Set
Actual Time 7:24 AM CDT 6:25 PM CDT
Civil Twilight 6:56 AM CDT 6:53 PM CDT
Nautical Twilight 6:25 AM CDT 7:24 PM CDT
Astronomical Twilight 5:53 AM CDT 7:55 PM CDT
Moon 6:15 PM CDT 7:00 AM CDT
Length of Visible Light 11h 56m
Length of Day
11h 01m
Full, 100% of the Moon is Illuminated
Oct 18
Full
Oct 18
Full
Oct 26
Last Quarter
Nov 3
New
Nov 9
First Quarter

Hourly Weather History & Observations

Time (CDT) Temp. Windchill Dew Point Humidity Pressure Visibility Wind Dir Wind Speed Gust Speed Precip Events Conditions
12:55 AM 45.0 °F 40.6 °F 39.9 °F 82% 29.97 in 10.0 mi NW 8.1 mph - N/A   Clear
1:55 AM 43.0 °F 39.5 °F 39.0 °F 86% 29.99 in 10.0 mi WNW 5.8 mph - N/A   Clear
2:55 AM 41.0 °F 38.0 °F 39.0 °F 93% 29.99 in 9.0 mi WNW 4.6 mph - N/A   Scattered Clouds
3:06 AM 42.8 °F 39.3 °F 39.2 °F 87% 29.98 in 9.0 mi WNW 5.8 mph - N/A   Mostly Cloudy
3:55 AM 44.1 °F 41.5 °F 41.0 °F 89% 29.99 in 10.0 mi West 4.6 mph - N/A   Overcast
4:55 AM 44.1 °F 38.1 °F 39.9 °F 85% 30.00 in 10.0 mi WNW 11.5 mph - N/A   Overcast
5:26 AM 42.8 °F 36.6 °F 35.6 °F 76% 30.00 in 10.0 mi NW 11.5 mph - N/A   Scattered Clouds
5:55 AM 41.0 °F 35.2 °F 36.0 °F 82% 30.03 in 10.0 mi NW 9.2 mph - N/A   Clear
6:55 AM 37.0 °F 33.3 °F 34.0 °F 89% 30.05 in 10.0 mi WNW 4.6 mph - N/A   Clear
7:55 AM 37.0 °F 33.3 °F 34.0 °F 89% 30.09 in 10.0 mi West 4.6 mph - N/A   Clear
8:55 AM 41.0 °F 35.2 °F 37.0 °F 86% 30.11 in 10.0 mi WNW 9.2 mph - N/A   Clear
9:55 AM 45.0 °F 40.1 °F 35.1 °F 68% 30.11 in 10.0 mi NNW 9.2 mph 16.1 mph N/A   Clear
10:55 AM 50.0 °F - 34.0 °F 54% 30.10 in 10.0 mi North 13.8 mph - N/A   Partly Cloudy
11:55 AM 50.0 °F - 30.9 °F 48% 30.10 in 10.0 mi Variable 5.8 mph - N/A   Clear
12:55 PM 50.0 °F - 30.0 °F 46% 30.08 in 10.0 mi WNW 10.4 mph - N/A   Clear
1:55 PM 48.0 °F - 30.9 °F 52% 30.08 in 10.0 mi NW 5.8 mph - N/A   Overcast
2:55 PM 46.9 °F - 28.9 °F 50% 30.07 in 10.0 mi WNW 6.9 mph - N/A   Overcast
3:55 PM 46.9 °F - 30.0 °F 52% 30.07 in 10.0 mi West 4.6 mph - N/A   Overcast
4:55 PM 44.1 °F 38.6 °F 34.0 °F 68% 30.07 in 10.0 mi SSW 10.4 mph - N/A   Overcast
5:55 PM 41.0 °F 37.1 °F 36.0 °F 82% 30.07 in 10.0 mi SSW 5.8 mph - N/A   Overcast
6:55 PM 39.9 °F 34.5 °F 36.0 °F 86% 30.08 in 10.0 mi SW 8.1 mph - N/A   Overcast
7:47 PM 39.2 °F 33.6 °F 35.6 °F 87% 30.06 in 10.0 mi SW 8.1 mph - N/A   Overcast
7:55 PM 39.0 °F 32.3 °F 36.0 °F 89% 30.10 in 10.0 mi SW 10.4 mph - N/A   Overcast
8:02 PM 39.2 °F 33.0 °F 35.6 °F 87% 30.06 in 10.0 mi SW 9.2 mph 16.1 mph N/A   Overcast
8:50 PM 39.2 °F 34.2 °F 35.6 °F 87% 30.06 in 10.0 mi WSW 6.9 mph - N/A   Overcast
8:55 PM 39.0 °F 34.0 °F 36.0 °F 89% 30.09 in 10.0 mi WSW 6.9 mph - N/A   Overcast
9:35 PM 39.2 °F 33.6 °F 35.6 °F 87% 30.06 in 10.0 mi WSW 8.1 mph - N/A   Overcast
9:55 PM 39.0 °F 33.4 °F 36.0 °F 89% 30.09 in 10.0 mi WSW 8.1 mph - N/A   Overcast
10:55 PM 39.0 °F 34.0 °F 36.0 °F 89% 30.07 in 10.0 mi WSW 6.9 mph - N/A   Overcast
11:55 PM 37.9 °F 33.5 °F 36.0 °F 93% 30.06 in 10.0 mi WSW 5.8 mph - N/A   Overcast